Regional Weather Roundup
Issued by NWS

Home | Current Version | Previous Version | Text Only | Print | Product List | Glossary On
Versions: 1 2 3 4 5 6 7 8 9 10 11 12 13 14 15 16 17 18 19 20 21 22 23 24 25 26 27 28 29 30 31 32 33 34 35 36 37 38 39 40 41 42 43 44 45 46 47 48 49 50
000
ASUS43 KOAX 231110
RWRNE

WEATHER ROUNDUP FOR NEBRASKA
NATIONAL WEATHER SERVICE OMAHA NE
600 AM CDT SAT AUG 23 2014

NOTES: SATELLITE DATA IS BEING USED TO AUGMENT CLOUD COVER ABOVE
       12000 FEET.
       "FAIR" INDICATES FEW OR NO CLOUDS BELOW 12,000 FEET WITH NO
       SIGNIFICANT WEATHER AND/OR OBSTRUCTIONS TO VISIBILITY.

  * THESE STATIONS DO NOT REPORT WEATHER SUCH AS RAIN...SNOW OR FOG.

NEZ001>004-019>022-054>056-231200-
NEBRASKA PANHANDLE

CITY           SKY/WX    TMP DP  RH WIND       PRES   REMARKS
SCOTTSBLUFF    CLOUDY    62  61  96 CALM      29.94F
ALLIANCE       LGT RAIN  61  60  97 E5        29.93F
CHADRON        CLOUDY    63  61  93 NE5       29.92F
KIMBALL        CLOUDY    60  59  96 CALM      29.96F
SIDNEY         FOG       61  60  97 CALM      29.95F VSB 3/4
$$

NEZ057>060-069>072-079>082-231200-
SOUTHWEST NEBRASKA

CITY           SKY/WX    TMP DP  RH WIND       PRES   REMARKS
NORTH PLATTE   CLOUDY    66  65  96 CALM      29.90S
IMPERIAL       CLOUDY    66  64  93 CALM      29.90F
LEXINGTON      MOCLDY    67  65  96 SE8       29.88R
MCCOOK         PTCLDY    65  64  97 W8        29.87F
OGALLALA       CLOUDY    63  62  97 CALM      29.91S FOG
$$

NEZ005>010-023>029-035>040-094-231200-
NORTH CENTRAL NEBRASKA

CITY           SKY/WX    TMP DP  RH WIND       PRES   REMARKS
VALENTINE      CLOUDY    66  65  96 NE3       29.86F
AINSWORTH      CLOUDY    66  65  98 S3        29.87S
BROKEN BOW     MOCLDY    66  66 100 CALM      29.89R
O`NEILL        CLOUDY    68  67  98 SE8       29.89R
ORD            PTCLDY    67  65  93 SE7       29.86S
THEDFORD       MOCLDY    66  65  97 S5        29.91R
$$

NEZ041-046>049-061>064-073>077-083>087-231200-
SOUTH CENTRAL NEBRASKA

CITY           SKY/WX    TMP DP  RH WIND       PRES   REMARKS
GRAND ISLAND   MOCLDY    67  64  90 SE5       29.87S
AURORA         MOCLDY    69  69 100 SE7       29.87S
HASTINGS       PTCLDY    68  64  87 SE8G17    29.87S
HEBRON         PTCLDY    69  65  86 E8        29.88S
HOLDREGE       CLOUDY    67  65  92 SE6       29.87F
KEARNEY *      MOCLDY    66  64  94 E7        29.88R
YORK           MOCLDY    68 N/A N/A SE10      29.86F
$$

NEZ011>018-030>034-042>045-231200-
NORTHEAST NEBRASKA

CITY           SKY/WX    TMP DP  RH WIND       PRES   REMARKS
NORFOLK        MOCLDY    68  66  93 E10       29.87R
ALBION         PTCLDY    66  64  94 CALM      29.86F
BLAIR          LGT RAIN  70  67  92 NE14      29.87F
FREMONT        CLOUDY    70  67  92 E6        29.87F
TEKAMAH        LGT RAIN  70  68  93 NE5       29.86S
WAYNE          CLOUDY    68  67  96 SE7       29.89R
$$

NEZ050>053-065>068-078-088>093-231200-
SOUTHEAST NEBRASKA

CITY           SKY/WX    TMP DP  RH WIND       PRES   REMARKS
LINCOLN        CLOUDY    70  67  90 E10       29.88F
OMAHA EPPLEY   CLOUDY    72  67  84 NE7       29.89F
BEATRICE       MOCLDY    70  68  95 E9        29.88S
FALLS CITY     CLOUDY    73  70  90 NE5       29.90S
NEBRASKA CITY  LGT RAIN  69  69 100 E6        29.90F
PLATTSMOUTH    CLOUDY    70  67  92 CALM      29.91S
$$

NEZ044-045-051>053-067-231200-
OMAHA AREA

CITY           SKY/WX    TMP DP  RH WIND       PRES   REMARKS
OMAHA EPPLEY   CLOUDY    72  67  84 NE7       29.89F
BLAIR          LGT RAIN  70  67  92 NE14      29.87F
FREMONT        CLOUDY    70  67  92 E6        29.87F
MILLARD        CLOUDY    71  69  92 SE6       29.88F
OFFUTT AFB     LGT RAIN  72  72 100 NE9       29.88F
PLATTSMOUTH    CLOUDY    70  67  92 CALM      29.91S
WAHOO          FAIR      69  66  90 E5        29.88S
$$



USA.gov is the U.S. government's official web portal to all federal, state and local government web resources and services.